RJTTRJDC

Guest
Details From RJTT - Rjtt-tokyo Haneda
To RJDC - Yamaguchi Ube
Flight Number -
Tags Generated
Created
Modified
Stats Distance 431 nm / 799 km
Max Altitude 0 ft / 0 m
Waypoints 3
Social Downloads 1
Likes 0
Share VATSIM

Download

Looking for another format? Having issues loading an existing format? Contact us
Advertisement - Login to hide

Notes

Generated

Route

RJTT UBE RJDC

ID Type Via Altitude Latitude Longitude Leg Dist Tot Dist Heading (true) Name
O RJTT APT - 0 ft / 0 m 35.56747˚ 139.77712˚ - 0 nm - -
UBE VOR - 0 ft / 0 m 33.93563˚ 131.28353˚ 430 nm 430 nm 259° / 254° UBE VOR-DME
O RJDC APT - 0 ft / 0 m 33.92467˚ 131.26680˚ 1 nm 431 nm 232° / 232° -

Altitude Profile

Advertisement - Login to hide

Weather


0- 5 10 15 20 25 30 35+ Temperature / ° C

Clouds and Precipitation
Forecast for 2018-05-24 00:00 UTC. Updated 2 hours ago

Ground ~20,000 ft ~40,000 ft Winds

RJTT

Details ICAO RJTT (HND)
Name Tokyo Haneda Intl
Region Japan
Timezone Asia/Tokyo (UTC+9.0)
Stats Elevation 20 ft / 6 m (AMSL)
Location 35.548254° 139.788554°
Runways 4
Magnetic Variation 7.451° W

METAR

RJTT 240100Z 11005KT 9999 FEW015 SCT035 21/18 Q1003 NOSIG

Decode

TAF

TAF RJTT 232307Z 2400/2506 10010KT 9999 FEW020 SCT040 BECMG 2404/2406 18012KT TEMPO 2405/2408 4000 TSRA BR FEW010 BKN020 FEW020CB

Decode

Departure Runways

ID Width Length Bearing (true) Bearing (mag) Surface Threshold Offset Overrun Length
04 200 ft / 61 m 8,211 ft / 2,503 m 34.90° 42.35° Asphalt 0 ft / 0 m 200 ft / 61 m
05 197 ft / 60 m 8,206 ft / 2,501 m 42.44° 49.89° Asphalt 0 ft / 0 m 197 ft / 60 m
16L 200 ft / 61 m 9,856 ft / 3,004 m 150.00° 157.45° Asphalt 0 ft / 0 m 200 ft / 61 m
16R 200 ft / 61 m 9,986 ft / 3,044 m 150.01° 157.46° Asphalt 131 ft / 40 m 0 ft / 0 m
22 200 ft / 61 m 8,211 ft / 2,503 m 214.90° 222.35° Asphalt 0 ft / 0 m 200 ft / 61 m
23 197 ft / 60 m 8,206 ft / 2,501 m 222.45° 229.90° Asphalt 0 ft / 0 m 197 ft / 60 m
34L 200 ft / 61 m 9,986 ft / 3,044 m 330.02° 337.47° Asphalt 0 ft / 0 m 197 ft / 60 m
34R 200 ft / 61 m 9,856 ft / 3,004 m 330.01° 337.46° Asphalt 0 ft / 0 m 200 ft / 61 m

RJDC

Details ICAO RJDC (UBJ)
Name YAMAGUCHI UBE
Region Japan
Timezone Asia/Tokyo (UTC+9.0)
Stats Elevation 23 ft / 7 m (AMSL)
Location 33.929913° 131.278765°
Runways 1
Magnetic Variation 7.594° W

METAR

RJDC 240100Z 24009KT 220V280 CAVOK 21/17 Q1010

Decode

TAF

Not found

Destination Runways

ID Width Length Bearing (true) Bearing (mag) Surface Threshold Offset Overrun Length
07 150 ft / 46 m 8,196 ft / 2,498 m 62.16° 69.75° Asphalt 0 ft / 0 m 210 ft / 64 m
25 150 ft / 46 m 8,196 ft / 2,498 m 242.17° 249.76° Asphalt 0 ft / 0 m 210 ft / 64 m

Approach Navaids

Runway Type Ident Frequency Range Bearing (true) Bearing (mag) Slope Elevation
07 Localiser IUB 110.10 MHz 18 nm / 33 km 62.16° 69.76° - 23 ft / 7 m (AMSL)
07 Glidescope IUB 110.10 MHz 10 nm / 19 km 62.16° 69.76° 3.00° 39 ft / 12 m (AMSL)

Popular Alternatives